Regional Weather Roundup
Issued by NWS

Home | Current Version | Previous Version | Graphics & Text | Print | Product List | Glossary On
Versions: 1 2 3 4 5 6 7 8 9 10 11 12 13 14 15 16 17 18 19 20 21 22 23 24 25 26 27 28 29 30 31 32 33 34 35 36 37 38 39 40 41 42 43 44 45 46 47 48 49 50
000
ASUS44 KMEG 181800
RWRTN
TENNESSEE HOURLY STATE WEATHER ROUNDUP
NATIONAL WEATHER SERVICE MEMPHIS TN
1200 PM CST THU DEC 18 2014

TNZ002-004-019-021-049-052-054-088>092-181900-
WEST TENNESSEE

CITY           SKY/WX    TMP DP  RH WIND       PRES   REMARKS
MEMPHIS INTL   CLOUDY    44  36  73 CALM      30.22F
NWS MEMPHIS      N/A     43 N/A N/A MISG        N/A
JACKSON        CLOUDY    41  35  79 CALM      30.23F
DYERSBURG      CLOUDY    39  27  60 E3        30.27S
UNION CITY     CLOUDY    36  34  93 E5        30.24F WCI  32
PARIS          CLOUDY    34  30  86 NE6       30.23F WCI  29
LEXINGTON      CLOUDY    37  34  87 E3        30.22F
SAVANNAH       CLOUDY    41  34  75 CALM      30.22F
$$

TNZ008-025-027-028-033-062-065-066-181900-
NORTH MIDDLE TENNESSEE

CITY           SKY/WX    TMP DP  RH WIND       PRES   REMARKS
NASHVILLE      CLOUDY    36  33  89 N6        30.24S WCI  31
CLARKSVILLE    CLOUDY    34  30  85 N6        30.26F WCI  29
CROSSVILLE     CLOUDY    42  30  62 CALM      30.15F
$$

TNZ061-075-076-078-094-096-097-181900-
SOUTH MIDDLE TENNESSEE

CITY           SKY/WX    TMP DP  RH WIND       PRES   REMARKS
TULLAHOMA      MOSUNNY   41  34  75 NW5       30.19S
WINCHESTER     MOSUNNY   43  34  70 CALM      30.18F
SHELBYVILLE    CLOUDY    39  36  87 N5        30.21F
$$

TNZ017-018-042-046-047-181900-
NORTHEAST TENNESSEE

CITY           SKY/WX    TMP DP  RH WIND       PRES   REMARKS
TRI CITIES     CLOUDY    39  30  70 VRB3      30.14F
ELIZABETHTON   MOCLDY    43  23  45 CALM      30.11F
$$

TNZ012-013-036-069-073-074-181900-
CENTRAL EAST TENNESSEE

CITY           SKY/WX    TMP DP  RH WIND       PRES   REMARKS
KNOXVILLE      PTSUNNY   41  29  62 CALM      30.16F
OAK RIDGE      PTSUNNY   43  28  55 CALM      30.18
GATLINBURG     MOCLDY    39  30  70 CALM      30.15F
$$

TNZ083-085-099-181900-
SOUTHEAST TENNESSEE

CITY           SKY/WX    TMP DP  RH WIND       PRES   REMARKS
CHATTANOOGA    CLOUDY    43  32  65 CALM      30.19F
$$

SKY/WX REPORTED AS FAIR MEANS FEW OR NO CLOUDS BELOW
12 THOUSAND FEET.




USA.gov is the U.S. government's official web portal to all federal, state and local government web resources and services.